Weather History for St. James, MN

Change the Weather History Date:

Saturday, January 19, 2013

  Actual Average Record
Temperature  
Mean Temperature 26 °F -  
Max Temperature 44 °F 23 °F 45 °F (1981)
Min Temperature 6 °F 3 °F -28 °F (1970)
Degree Days  
Heating Degree Days 39    
Moisture  
Dew Point 19 °F    
Average Humidity 62    
Maximum Humidity 75    
Minimum Humidity 53    
Precipitation  
Precipitation 0.00 in - - ()
Sea Level Pressure  
Sea Level Pressure 29.92 in    
Wind  
Wind Speed 12 mph (WNW)    
Max Wind Speed 39 mph    
Max Gust Speed 51 mph    
Visibility 10 miles    
Events      
Averages and records for this station are not official NWS values.
T = Trace of Precipitation, MM = Missing Value Source: NWS Daily Summary

Daily Weather History Graph

Daily Weather History Graph

Search for Another Location

Airport:

Trip Planner

Search our weather history database for the weather conditions in past years. The results will help you decide how hot, cold, wet, or windy it might be!

Date:

Astronomy

Jan. 19, 2013 Rise Set
Actual Time 7:47 AM CST 5:11 PM CST
Civil Twilight 7:15 AM CST 5:43 PM CST
Nautical Twilight 6:39 AM CST 6:18 PM CST
Astronomical Twilight 6:05 AM CST 6:53 PM CST
Moon 11:40 AM CST (1/19) 1:19 AM CST (1/19)
Length of Visible Light 10h 27m
Length of Day
9h 24m
First Quarter, 57% of the Moon is Illuminated
Jan 19
First Quarter
Jan 26
Full
Feb 3
Last Quarter
Feb 10
New
Feb 17
First Quarter

Hourly Weather History & Observations

Time (CST) Temp. Windchill Dew Point Humidity Pressure Visibility Wind Dir Wind Speed Gust Speed Precip Events Conditions
12:15 AM 37.4 °F - 28.4 °F 70% 29.78 in 10.0 mi Calm Calm - N/A   Clear
12:35 AM 37.4 °F - 30.2 °F 75% 29.78 in 10.0 mi Calm Calm - N/A   Scattered Clouds
12:54 AM 35.6 °F - 28.4 °F 75% 29.77 in 10.0 mi Calm Calm - N/A   Scattered Clouds
1:15 AM 37.4 °F - 28.4 °F 70% 29.77 in 10.0 mi Calm Calm - N/A   Mostly Cloudy
1:35 AM 37.4 °F - 28.4 °F 70% 29.77 in 10.0 mi Calm Calm - N/A   Overcast
1:55 AM 37.4 °F - 28.4 °F 70% 29.76 in 10.0 mi Calm Calm - N/A   Scattered Clouds
2:15 AM 37.4 °F - 28.4 °F 70% 29.76 in 10.0 mi Calm Calm - N/A   Scattered Clouds
2:35 AM 39.2 °F - 28.4 °F 65% 29.75 in 10.0 mi Calm Calm - N/A   Scattered Clouds
2:55 AM 39.2 °F 33.6 °F 28.4 °F 65% 29.75 in 10.0 mi SSW 8.1 mph - N/A   Scattered Clouds
3:15 AM 39.2 °F 33.0 °F 28.4 °F 65% 29.75 in 10.0 mi SSW 9.2 mph - N/A   Scattered Clouds
3:35 AM 37.4 °F - 28.4 °F 70% 29.74 in 10.0 mi Calm Calm - N/A   Clear
3:55 AM 37.4 °F - 28.4 °F 70% 29.74 in 10.0 mi Calm Calm - N/A   Clear
4:15 AM 37.4 °F - 28.4 °F 70% 29.74 in 10.0 mi Calm Calm - N/A   Scattered Clouds
4:35 AM 37.4 °F - 28.4 °F 70% 29.72 in 10.0 mi Calm Calm - N/A   Scattered Clouds
4:55 AM 41.0 °F 35.2 °F 28.4 °F 61% 29.72 in 10.0 mi SSW 9.2 mph - N/A   Clear
5:15 AM 39.2 °F 32.0 °F 28.4 °F 65% 29.72 in 10.0 mi SW 11.5 mph - N/A   Mostly Cloudy
5:35 AM 39.2 °F 32.5 °F 28.4 °F 65% 29.73 in 10.0 mi SW 10.4 mph - N/A   Overcast
5:55 AM 39.2 °F 32.0 °F 28.4 °F 65% 29.75 in 10.0 mi West 11.5 mph - N/A   Scattered Clouds
6:15 AM 39.2 °F 32.0 °F 28.4 °F 65% 29.73 in 10.0 mi WSW 11.5 mph - N/A   Clear
6:35 AM 39.2 °F 32.0 °F 26.6 °F 61% 29.73 in 10.0 mi West 11.5 mph - N/A   Clear
6:55 AM 39.2 °F 33.0 °F 28.4 °F 65% 29.73 in 10.0 mi West 9.2 mph - N/A   Clear
7:15 AM 39.2 °F 32.0 °F 28.4 °F 65% 29.73 in 10.0 mi West 11.5 mph - N/A   Clear
7:35 AM 39.2 °F 32.5 °F 26.6 °F 61% 29.74 in 10.0 mi West 10.4 mph - N/A   Clear
7:55 AM 39.2 °F 31.6 °F 26.6 °F 61% 29.74 in 10.0 mi West 12.7 mph - N/A   Clear
8:15 AM 39.2 °F 31.2 °F 28.4 °F 65% 29.75 in 10.0 mi West 13.8 mph - N/A   Clear
8:35 AM 39.2 °F 32.5 °F 28.4 °F 65% 29.77 in 10.0 mi West 10.4 mph - N/A   Clear
8:55 AM 39.2 °F 32.0 °F 28.4 °F 65% 29.78 in 10.0 mi West 11.5 mph - N/A   Clear
9:15 AM 39.2 °F 31.6 °F 28.4 °F 65% 29.79 in 10.0 mi West 12.7 mph - N/A   Clear
9:35 AM 39.2 °F 31.6 °F 26.6 °F 61% 29.79 in 10.0 mi West 12.7 mph 17.3 mph N/A   Scattered Clouds
9:55 AM 39.2 °F 30.8 °F 28.4 °F 65% 29.81 in 10.0 mi West 15.0 mph - N/A   Scattered Clouds
10:15 AM 39.2 °F 30.8 °F 28.4 °F 65% 29.81 in 10.0 mi West 15.0 mph - N/A   Clear
10:35 AM 41.0 °F 32.8 °F 28.4 °F 61% 29.83 in 10.0 mi West 16.1 mph - N/A   Scattered Clouds
10:55 AM 41.0 °F 32.5 °F 28.4 °F 61% 29.83 in 10.0 mi West 17.3 mph 25.3 mph N/A   Scattered Clouds
11:15 AM 42.8 °F 35.8 °F 28.4 °F 57% 29.82 in 10.0 mi WNW 13.8 mph 21.9 mph N/A   Scattered Clouds
11:35 AM 44.6 °F 36.6 °F 28.4 °F 53% 29.81 in 10.0 mi WNW 19.6 mph 26.5 mph N/A   Clear
11:55 AM 44.6 °F 35.7 °F 30.2 °F 57% 29.82 in 10.0 mi WNW 24.2 mph 32.2 mph N/A   Clear
12:15 PM 44.6 °F 36.4 °F 30.2 °F 57% 29.83 in 10.0 mi WNW 20.7 mph 29.9 mph N/A   Clear
12:35 PM 44.6 °F 35.7 °F 30.2 °F 57% 29.84 in 10.0 mi WNW 24.2 mph 36.8 mph N/A   Clear
12:55 PM 44.6 °F 35.7 °F 30.2 °F 57% 29.84 in 10.0 mi WNW 24.2 mph 35.7 mph N/A   Clear
1:15 PM 44.6 °F 36.1 °F 30.2 °F 57% 29.85 in 10.0 mi WNW 21.9 mph 31.1 mph N/A   Clear
1:35 PM 44.6 °F 35.3 °F 28.4 °F 53% 29.85 in 10.0 mi West 26.5 mph 41.4 mph N/A   Scattered Clouds
1:55 PM 42.8 °F 33.8 °F 30.2 °F 61% 29.85 in 10.0 mi WNW 21.9 mph 31.1 mph N/A   Scattered Clouds
2:15 PM 42.8 °F 32.7 °F 28.4 °F 57% 29.86 in 10.0 mi West 27.6 mph 42.6 mph N/A   Scattered Clouds
2:35 PM 37.4 °F 24.6 °F 26.6 °F 65% 29.90 in 10.0 mi NW 32.2 mph 39.1 mph N/A   Mostly Cloudy
2:55 PM 30.2 °F 14.7 °F 21.2 °F 69% 29.93 in 10.0 mi NW 32.2 mph 41.4 mph N/A   Mostly Cloudy
3:15 PM 30.2 °F 15.9 °F 21.2 °F 69% 29.95 in 10.0 mi WNW 26.5 mph 38.0 mph N/A   Overcast
3:35 PM 30.2 °F 14.7 °F 21.2 °F 69% 29.97 in 10.0 mi NW 32.2 mph 40.3 mph N/A   Overcast
3:55 PM 28.4 °F 13.8 °F 19.4 °F 69% 29.99 in 10.0 mi WNW 25.3 mph 33.4 mph N/A   Overcast
4:15 PM 26.6 °F 9.8 °F 15.8 °F 64% 30.00 in 10.0 mi WNW 32.2 mph 41.4 mph N/A   Overcast
4:35 PM 24.8 °F 6.6 °F 12.2 °F 59% 30.02 in 10.0 mi WNW 35.7 mph 44.9 mph N/A   Mostly Cloudy
4:54 PM 23.0 °F 3.9 °F 8.6 °F 54% 30.05 in 10.0 mi WNW 36.8 mph 48.3 mph N/A   Scattered Clouds
5:15 PM 21.2 °F 2.2 °F 8.6 °F 58% 30.07 in 10.0 mi WNW 33.4 mph 42.6 mph N/A   Scattered Clouds
5:35 PM 19.4 °F 0.2 °F 6.8 °F 58% 30.09 in 10.0 mi WNW 31.1 mph 39.1 mph N/A   Scattered Clouds
5:55 PM 19.4 °F -0.3 °F 5.0 °F 54% 30.11 in 10.0 mi WNW 33.4 mph 43.7 mph N/A   Scattered Clouds
6:15 PM 19.4 °F 1.8 °F 5.0 °F 54% 30.13 in 10.0 mi WNW 25.3 mph 50.6 mph N/A   Scattered Clouds
6:35 PM 17.6 °F -3.1 °F 3.2 °F 53% 30.14 in 10.0 mi WNW 34.5 mph 44.9 mph N/A   Mostly Cloudy
6:55 PM 15.8 °F -5.5 °F 1.4 °F 53% 30.16 in 10.0 mi WNW 34.5 mph 41.4 mph N/A   Mostly Cloudy
7:15 PM 15.8 °F -6.6 °F 1.4 °F 53% 30.16 in 10.0 mi WNW 39.1 mph 48.3 mph N/A   Scattered Clouds
7:35 PM 14.0 °F -6.5 °F 1.4 °F 57% 30.18 in 10.0 mi WNW 28.8 mph 42.6 mph N/A   Clear
7:55 PM 12.2 °F -9.3 °F -0.4 °F 57% 30.21 in 10.0 mi WNW 29.9 mph 43.7 mph N/A   Clear
8:15 PM 12.2 °F -8.9 °F -0.4 °F 57% 30.21 in 10.0 mi WNW 28.8 mph 39.1 mph N/A   Clear
8:35 PM 12.2 °F -9.6 °F -0.4 °F 57% 30.22 in 10.0 mi WNW 31.1 mph 39.1 mph N/A   Clear
8:55 PM 10.4 °F -9.9 °F -0.4 °F 62% 30.23 in 10.0 mi WNW 24.2 mph 35.7 mph N/A   Clear
9:15 PM 10.4 °F -11.4 °F -2.2 °F 57% 30.23 in 10.0 mi WNW 28.8 mph 38.0 mph N/A   Clear
9:35 PM 10.4 °F -11.0 °F -2.2 °F 57% 30.24 in 10.0 mi WNW 27.6 mph 35.7 mph N/A   Clear
9:55 PM 8.6 °F -11.4 °F -2.2 °F 62% 30.25 in 10.0 mi WNW 21.9 mph 29.9 mph N/A   Clear
10:15 PM 8.6 °F -10.5 °F -2.2 °F 62% 30.26 in 10.0 mi WNW 19.6 mph 36.8 mph N/A   Clear
10:35 PM 8.6 °F -11.9 °F -2.2 °F 62% 30.25 in 10.0 mi WNW 23.0 mph 29.9 mph N/A   Clear
10:54 PM 8.6 °F -10.5 °F -4.0 °F 57% 30.26 in 10.0 mi WNW 19.6 mph 31.1 mph N/A   Clear
11:15 PM 8.6 °F -10.5 °F -2.2 °F 62% 30.28 in 10.0 mi WNW 19.6 mph 25.3 mph N/A   Clear
11:35 PM 8.6 °F -11.9 °F -2.2 °F 62% 30.29 in 10.0 mi WNW 23.0 mph 29.9 mph N/A   Clear
11:55 PM 6.8 °F -13.8 °F -4.0 °F 61% 30.29 in 10.0 mi WNW 21.9 mph 27.6 mph N/A   Clear